Flag for France Weather past 2 weeks in Marseille, France

Now
90 °F

Sunny.


Feels Like: 92 °F
Forecast: 71 / 87 °F
Wind: 12 mph from Southwest

Location: Marseille / Marignane

Current Time: Aug 4, 2015 at 3:54:10 PM

Latest Report: Aug 4, 2015 at 3:30 PM


Visibility: 10 mi

Pressure: 29.95 "Hg

Humidity: 46%

Dew point: 66 °F

Location of MarseilleLocation

Historic Weather in Marseille — Graph

°F

Marseille temperature yesterday

Maximum temperature yesterday: 88 °F (at 1:30 PM)
Minimum temperature yesterday: 64 °F (at 6:00 AM)
Average temperature yesterday: 76 °F

Past Weeks' High & Low Weather Summary

 TemperatureHumidityPressure
High95 °F (Jul 20, 3:00 PM)94% (Jul 22, 3:30 AM)30.04 "Hg (Jul 22, 3:30 AM)
Low59 °F (Jul 31, 6:00 AM)19% (Jul 25, 2:30 PM)29.74 "Hg (Jul 24, 5:30 PM)
Average79 °F54%29.89 "Hg
* Reported Jul 20 2:00 PM — Aug 4 2:30 PM, Marseille, Weather by CustomWeather, © 2015

Note: Actual official high and low records may vary slightly from our data, if they occured in-between our weather recording intervals... More about our weather records

Advertising

Marseille weather history for previous 24 hours

 ConditionsComfort  
Time TempWeatherWind HumidityBarometerVisibility
2:30 PM
Tue, Aug 4
88 °FSunny.9 mph40%29.95 "Hg10 mi
2:00 PM88 °FSunny.7 mph43%29.98 "Hg10 mi
1:00 PM88 °FSunny.9 mph46%29.98 "Hg10 mi
12:30 PM86 °FPassing clouds.3 mph46%29.98 "HgN/A
12:00 PM82 °FSunny.9 mph58%30.01 "Hg10 mi
11:30 AM81 °FPassing clouds.3 mph58%30.01 "HgN/A
11:00 AM81 °FBroken clouds.9 mph66%30.01 "HgN/A
10:30 AM81 °FPartly sunny.17 mph66%30.01 "HgN/A
10:00 AM82 °FPartly sunny.12 mph51%29.98 "HgN/A
9:30 AM81 °FPartly sunny.8 mph54%29.92 "HgN/A
9:00 AM79 °FPartly sunny.15 mph65%29.89 "HgN/A
8:30 AM75 °FBroken clouds.8 mph74%29.89 "HgN/A
8:00 AM75 °FLight rain. Broken clouds.10 mph78%29.95 "HgN/A
7:30 AM73 °FPassing clouds.5 mph89%30.01 "HgN/A
7:00 AM73 °FPassing clouds.5 mph89%30.01 "HgN/A
6:30 AM73 °FPassing clouds.2 mph89%30.01 "HgN/A
6:00 AM75 °FPassing clouds.12 mph83%30.04 "Hg4 mi
5:30 AM75 °FOvercast.9 mph83%30.01 "Hg4 mi
5:00 AM77 °FOvercast.23 mph69%30.04 "Hg4 mi
4:30 AM77 °FPassing clouds.5 mph65%29.92 "HgN/A
4:00 AM75 °FClear.10 mph74%29.92 "Hg10 mi
3:30 AM73 °FPassing clouds.9 mph83%29.92 "HgN/A
3:00 AM72 °FPassing clouds.5 mph88%29.95 "HgN/A
2:30 AM73 °FClear.9 mph83%29.98 "Hg10 mi
2:00 AM73 °FPassing clouds.6 mph89%29.98 "HgN/A
1:30 AM73 °FPassing clouds.No wind89%30.01 "HgN/A
1:00 AM73 °FPassing clouds.5 mph89%30.01 "HgN/A
12:30 AM75 °FPassing clouds.3 mph83%30.01 "HgN/A
12:00 AM75 °FOvercast.3 mph83%30.01 "HgN/A
11:30 PM
Mon, Aug 3
75 °FOvercast.5 mph89%30.01 "HgN/A
10:54 PM75 °FOvercast.3 mph89%30.01 "HgN/A
10:30 PM73 °FClear.5 mph94%30.01 "Hg10 mi
10:00 PM73 °FClear.5 mph89%30.01 "Hg10 mi
9:30 PM75 °FSunny.3 mph83%29.98 "Hg10 mi
9:00 PM75 °FSunny.7 mph83%29.98 "Hg10 mi
8:00 PM79 °FSunny.10 mph74%29.98 "Hg10 mi
7:30 PM81 °FSunny.12 mph66%29.98 "Hg10 mi
7:00 PM81 °FSunny.9 mph62%29.98 "Hg10 mi
6:30 PM82 °FSunny.12 mph55%29.98 "Hg10 mi
6:00 PM84 °FSunny.9 mph51%29.98 "Hg10 mi
5:30 PM84 °FPassing clouds.10 mph48%29.98 "HgN/A
5:00 PM84 °FPassing clouds.12 mph48%29.98 "HgN/A
4:30 PM84 °FSunny.12 mph55%29.98 "Hg10 mi
4:00 PM84 °FSunny.15 mph55%30.01 "Hg10 mi
3:30 PM84 °FSunny.18 mph51%30.01 "Hg10 mi
3:00 PM86 °FSunny.12 mph46%30.01 "Hg10 mi
Weather by CustomWeather, © 2015

See weather overviewHow to use our weather pages